Flag for Germany Weather past 2 weeks in Landsberg am Lech, Bavaria, Germany

Now
59 °F

Drizzle. More clouds than sun.


Feels Like: 58 °F
Forecast: 57 / 69 °F
Wind: 8 mph from West

Location: Landsberg

Current Time: May 3, 2015 at 2:53:52 PM

Latest Report: May 3, 2015 at 2:20 PM


Visibility: N/A

Pressure: 29.83 "Hg

Humidity: 88%

Dew point: 55 °F

Location of Landsberg am LechLocation

Historic Weather in Landsberg am Lech — Graph

°F

Landsberg am Lech temperature yesterday

Maximum temperature yesterday: 54 °F (at 3:20 PM)
Minimum temperature yesterday: 45 °F (at 3:20 AM)
Average temperature yesterday: 50 °F

Past Weeks' High & Low Weather Summary

 TemperatureHumidityPressure
High68 °F (Apr 27, 2:20 PM)100% (Apr 28, 9:20 AM)30.39 "Hg (Apr 28, 9:20 AM)
Low30 °F (Apr 23, 6:20 AM)22% (Apr 24, 6:20 PM)29.50 "Hg (Apr 27, 5:20 PM)
Average49 °F70%29.98 "Hg
* Reported Apr 18 1:20 PM — May 3 1:20 PM, Landsberg am Lech, Weather by CustomWeather, © 2015

Note: Actual official high and low records may vary slightly from our data, if they occured in-between our weather recording intervals... More about our weather records

Advertising

Landsberg am Lech weather history for previous 24 hours

 ConditionsComfort  
Time TempWeatherWind HumidityBarometerVisibility
1:20 PM
Sun, May 3
57 °FDrizzle. More clouds than sun.13 mph94%29.83 "Hg4 mi
12:20 PM57 °FLight rain. More clouds than sun.9 mph94%29.80 "HgN/A
11:20 AM57 °FDrizzle. Mostly cloudy.12 mph88%29.80 "Hg5 mi
10:20 AM55 °FDrizzle. Fog.7 mph94%29.80 "Hg3 mi
9:20 AM52 °FDrizzle. Fog.8 mph100%29.80 "Hg3 mi
8:20 AM52 °FRain. More clouds than sun.7 mph94%29.80 "Hg5 mi
7:20 AM50 °FRain. Low clouds.7 mph100%29.80 "Hg4 mi
6:20 AM50 °FRain. Mostly cloudy.9 mph94%29.77 "Hg4 mi
5:20 AM50 °FRain. Overcast.5 mph94%29.80 "Hg5 mi
4:20 AM50 °FRain. Mostly cloudy.6 mph94%29.80 "Hg5 mi
3:20 AM50 °FRain. Mostly cloudy.7 mph100%29.83 "Hg5 mi
2:20 AM50 °FRain. Mostly cloudy.5 mph100%29.86 "Hg5 mi
1:20 AM50 °FLight rain. Partly cloudy.3 mph100%29.89 "HgN/A
12:20 AM52 °FLight rain. Passing clouds.8 mph94%29.89 "HgN/A
11:20 PM
Sat, May 2
50 °FLight rain. Passing clouds.5 mph100%29.89 "HgN/A
10:20 PM52 °FPassing clouds.5 mph94%29.89 "HgN/A
9:20 PM52 °FBroken clouds.5 mph94%29.89 "HgN/A
8:20 PM52 °FLight rain. Partly sunny.6 mph94%29.89 "HgN/A
7:20 PM54 °FLight rain. Partly sunny.5 mph88%29.89 "HgN/A
6:20 PM54 °FLight rain. Broken clouds.5 mph88%29.89 "HgN/A
5:59 PM54 °FLight rain. Broken clouds.3 mph88%29.89 "HgN/A
5:20 PM54 °FLight rain. Broken clouds.5 mph88%29.89 "HgN/A
4:20 PM54 °FScattered showers. Partly sunny.2 mph82%29.89 "HgN/A
3:20 PM54 °FPartly sunny.3 mph82%29.89 "HgN/A
2:20 PM52 °FScattered showers. Partly sunny.2 mph88%29.92 "Hg5 mi
Weather by CustomWeather, © 2015

See weather overviewHow to use our weather pages